Kalamazoo, MI

12:37 AM EDT on October 17, 2017 (GMT -0400)
Kalamazoo-Battle Creek International

Weather History for KAZO - January, 2014

Change the Weather History Date:

Saturday, January 18, 2014

  Actual Average Record
Temperature  
Mean Temperature 16 °F 24 °F  
Max Temperature 19 °F 31 °F 56 °F (1952)
Min Temperature 12 °F 18 °F -5 °F (1997)
Degree Days  
Heating Degree Days 49 41  
Month to date heating degree days 662 730  
Since 1 July heating degree days 3169 3181  
Cooling Degree Days 0 0  
Month to date cooling degree days 0 0  
Year to date cooling degree days 0 0  
Moisture  
Dew Point 11 °F    
Average Humidity 80    
Maximum Humidity 92    
Minimum Humidity 67    
Precipitation  
Precipitation 0.01 in 0.05 in 0.50 in (1988)
Month to date precipitation 0.72 1.02  
Year to date precipitation 0.72 1.02  
Sea Level Pressure  
Sea Level Pressure 29.90 in    
Wind  
Wind Speed 7 mph (South)    
Max Wind Speed 17 mph    
Max Gust Speed 21 mph    
Visibility 7 miles    
Events Snow    
T = Trace of Precipitation, MM = Missing Value Source: NWS Daily Summary

Daily Weather History Graph

Daily Weather History Graph

Search for Another Location

Airport or City:

Trip Planner

Search our weather history database for the weather conditions in past years. The results will help you decide how hot, cold, wet, or windy it might be!

Date:

Astronomy

Jan. 18, 2014 Rise Set
Actual Time 8:06 AM EST 5:38 PM EST
Civil Twilight 7:36 AM EST 6:09 PM EST
Nautical Twilight 7:01 AM EST 6:44 PM EST
Astronomical Twilight 6:28 AM EST 7:17 PM EST
Moon 8:24 PM EST (1/18) 9:02 AM EST (1/18)
Length of Visible Light 10h 33m
Length of Day
9h 32m
Waning Gibbous, 94% of the Moon is Illuminated
Jan 18
Waning Gibbous
Jan 24
Last Quarter
Jan 30
New
Feb 6
First Quarter
Feb 14
Full

Hourly Weather History & Observations

Time (EST) Temp. Windchill Dew Point Humidity Pressure Visibility Wind Dir Wind Speed Gust Speed Precip Events Conditions
12:53 AM 14.0 °F 0.5 °F 9.0 °F 80% 29.93 in 10.0 mi South 11.5 mph - N/A   Overcast
1:53 AM 15.1 °F 3.3 °F 10.0 °F 80% 29.93 in 8.0 mi SSW 9.2 mph - 0.00 in Snow Light Snow
2:53 AM 16.0 °F 2.9 °F 10.9 °F 81% 29.93 in 5.0 mi SSW 11.5 mph - 0.00 in Snow Light Snow
3:32 AM 15.8 °F 2.1 °F 10.4 °F 79% 29.89 in 7.0 mi SSW 12.7 mph - 0.00 in Snow Light Snow
3:53 AM 16.0 °F 2.9 °F 10.9 °F 81% 29.93 in 9.0 mi SSW 11.5 mph - 0.00 in   Overcast
4:53 AM 16.0 °F 1.1 °F 10.9 °F 81% 29.92 in 7.0 mi SSW 15.0 mph - 0.00 in Snow Light Snow
5:53 AM 16.0 °F 2.3 °F 10.9 °F 81% 29.93 in 10.0 mi SSW 12.7 mph - 0.00 in Snow Light Snow
6:53 AM 15.1 °F -0.1 °F 10.0 °F 80% 29.93 in 9.0 mi SW 15.0 mph - 0.00 in Snow Light Snow
7:53 AM 15.1 °F 3.3 °F 9.0 °F 77% 29.93 in 9.0 mi SSW 9.2 mph - 0.00 in Snow Light Snow
8:53 AM 15.1 °F 3.3 °F 9.0 °F 77% 29.94 in 7.0 mi SW 9.2 mph - 0.00 in Snow Light Snow
9:53 AM 15.1 °F 5.2 °F 9.0 °F 77% 29.95 in 10.0 mi SW 6.9 mph - 0.00 in   Overcast
10:53 AM 16.0 °F 2.9 °F 10.0 °F 77% 29.95 in 9.0 mi South 11.5 mph - 0.00 in Snow Light Snow
11:53 AM 17.1 °F 5.0 °F 10.0 °F 74% 29.93 in 9.0 mi South 10.4 mph - 0.00 in   Clear
12:53 PM 17.1 °F 6.6 °F 10.0 °F 74% 29.91 in 10.0 mi South 8.1 mph - N/A   Clear
1:53 PM 17.1 °F 6.6 °F 9.0 °F 71% 29.88 in 10.0 mi South 8.1 mph - N/A   Mostly Cloudy
2:53 PM 17.1 °F 6.6 °F 9.0 °F 71% 29.87 in 9.0 mi SSE 8.1 mph - N/A   Overcast
3:53 PM 18.0 °F 11.1 °F 10.0 °F 71% 29.87 in 10.0 mi SE 4.6 mph - N/A   Mostly Cloudy
4:53 PM 18.0 °F 8.7 °F 10.0 °F 71% 29.88 in 10.0 mi SE 6.9 mph - N/A   Overcast
5:37 PM 17.6 °F 10.7 °F 10.4 °F 73% 29.84 in 1.8 mi SSE 4.6 mph - 0.00 in Snow Light Snow
5:53 PM 18.0 °F 11.1 °F 12.0 °F 78% 29.89 in 1.8 mi SE 4.6 mph - 0.00 in Snow Light Snow
6:53 PM 18.0 °F - 14.0 °F 84% 29.91 in 2.0 mi Calm Calm - 0.01 in Snow Light Snow
7:53 PM 18.0 °F 12.7 °F 14.0 °F 84% 29.90 in 2.0 mi ESE 3.5 mph - 0.00 in Snow Light Snow
8:53 PM 17.1 °F - 12.9 °F 84% 29.89 in 2.0 mi Calm Calm - 0.00 in Snow Light Snow
9:00 PM 17.6 °F 12.3 °F 12.2 °F 79% 29.84 in 4.0 mi East 3.5 mph - 0.00 in Snow Light Snow
9:53 PM 15.1 °F - 10.9 °F 84% 29.87 in 8.0 mi Calm Calm - 0.00 in   Mostly Cloudy
10:53 PM 12.9 °F - 10.0 °F 88% 29.86 in 6.0 mi Calm Calm - N/A   Overcast
11:00 PM 14.0 °F - 10.4 °F 86% 29.80 in 6.0 mi Calm Calm - N/A   Overcast
11:53 PM 15.1 °F - 12.0 °F 88% 29.85 in 7.0 mi Calm Calm - N/A   Overcast